Location: Ahstedt
(52.2048°N, 10.1060°E)
Time: 14:08:58
(UTC+00:00)

Timation 1 Rocket - Visible Passes

Search period start: 11 April 2026 00:00
Search period end: 21 April 2026 00:00
Orbit: 895 x 909 km, 70.0° (Epoch: 11 April)

Date Brightness Start Highest point End Pass type
(mag) Time Alt. Az. Time Alt. Az. Time Alt. Az.
11 Apr 5.9 00:51:16 22° SE 00:52:56 25° ESE 00:57:39 10° NE visible
11 Apr 4.3 02:34:20 26° SW 02:37:52 76° NW 02:43:55 10° NNE visible
12 Apr 5.5 00:54:20 27° SE 00:55:50 31° ESE 01:01:00 10° NE visible
12 Apr 4.5 02:37:25 25° SW 02:41:00 63° NW 02:47:00 10° NNE visible
13 Apr 5.2 00:57:23 34° SE 00:58:46 39° ESE 01:04:17 10° NE visible
13 Apr 4.7 02:40:27 22° WSW 02:44:10 52° NW 02:50:04 10° NNE visible
14 Apr 4.9 01:00:23 41° SSE 01:01:44 49° ESE 01:07:30 10° NE visible
14 Apr 5.0 02:43:27 19° WSW 02:47:22 43° NW 02:53:07 10° NNE visible
14 Apr 6.5 23:20:17 12° E 23:20:28 12° E 23:22:36 10° ENE visible
15 Apr 4.5 01:03:21 48° SSE 01:04:45 61° ESE 01:10:40 10° NE visible
15 Apr 5.3 02:46:25 16° WSW 02:50:36 37° NW 02:56:10 10° NNE visible
15 Apr 6.3 23:23:13 16° E 23:23:16 16° E 23:26:42 10° ENE visible
16 Apr 4.3 01:06:17 52° S 01:07:47 76° ESE 01:13:48 10° NE visible
16 Apr 5.5 02:49:21 13° W 02:53:53 32° NW 02:59:13 10° NNE visible
16 Apr 6.0 23:26:08 20° E 23:26:08 20° E 23:30:21 10° NE visible
17 Apr 4.3 01:09:12 51° SSW 01:10:51 89° WNW 01:16:55 10° NNE visible
17 Apr 5.7 02:52:16 11° W 02:57:11 27° NW 03:02:17 10° NNE visible
17 Apr 5.7 23:29:01 26° ESE 23:29:01 26° ESE 23:33:49 10° NE visible
18 Apr 4.4 01:12:04 45° SW 01:13:58 73° NW 01:20:01 10° NNE visible
18 Apr 6.0 02:55:43 10° W 03:00:31 24° NNW 03:05:21 10° NNE visible
18 Apr 5.3 23:31:51 32° ESE 23:31:53 32° ESE 23:37:08 10° NE visible
19 Apr 4.6 01:14:55 38° WSW 01:17:06 60° NW 01:23:05 10° NNE visible
19 Apr 6.1 02:59:21 10° WNW 03:03:52 21° NNW 03:08:25 10° NNE visible
19 Apr 5.0 23:34:40 40° ESE 23:34:50 40° ESE 23:40:24 10° NE visible
20 Apr 4.9 01:17:43 31° WSW 01:20:16 50° NW 01:26:09 10° NNE visible
20 Apr 6.3 03:03:02 10° WNW 03:07:16 19° NNW 03:11:31 10° NNE visible
20 Apr 4.6 23:37:27 50° SE 23:37:49 51° ESE 23:43:36 10° NE visible
